ONEWEB-0405 (50485 NORAD) Tracking and Keplerian Element Data
This shows tracking and keplerian element data for the satellite.
Feedback or suggestion? Click here.
Element | Value |
Catalog | 50485 |
Name | ONEWEB-0405 |
Epoch Orbit | 130 |
Epoch Day | 140.58334491 |
Epoch Year | 2022 |
RAAN | 306.3534 |
Inclination | 87.2985 |
Eccentricity | 0.0004925 |
Argument of Perigee | 85.3989 |
Mean Anonmoly | 130.8731 |
Mean Motion | 14.92499087 |
Decay Rate | -0.00060835 |
L1 | 1 50485U 21132S 22140.58334491 -.00060835 00000+0 -59908-2 0 9993 |
L2 | 2 50485 87.2985 306.3534 0004925 85.3989 130.8731 14.92499087 1309 |
Live tracking and technical data element details for ONEWEB-0405 (NORAD 50485). ONEWEB-0405 can be tracked NOW for your location showing map with azimuth and elevation plus other details from your city location.
Track the satellite on the map from your city or location and see movement details for azimuth, elevation, latitude, longitude, range, height, and movement on the map or in text.
IsCatalogInMostPopularTable: catalog: 50485, numindb: 55
Update: records affected: 1
GetName: 50485 ONEWEB-0405
Hit Count: updated at: Sun, 22 May 2022 05:39:19 GMT